Weather History for KERV - July, 2013

Change the Weather History Date:

Friday, July 12, 2013

  Actual Average (KHDO) Record (KHDO)
Temperature  
Mean Temperature 84 °F -  
Max Temperature 96 °F 93 °F 102 °F (1998)
Min Temperature 71 °F 70 °F 66 °F (2004)
Cooling Degree Days 18    
Growing Degree Days 34 (Base 50)    
Moisture  
Dew Point 62 °F    
Average Humidity 54    
Maximum Humidity 89    
Minimum Humidity 20    
Precipitation  
Precipitation 0.00 in - - ()
Sea Level Pressure  
Sea Level Pressure 29.98 in    
Wind  
Wind Speed 5 mph (SE)    
Max Wind Speed 13 mph    
Max Gust Speed 17 mph    
Visibility 10 miles    
Events      
Averages and records for this station are not official NWS values.
T = Trace of Precipitation, MM = Missing Value Source: NWS Daily Summary

Daily Weather History Graph

Daily Weather History Graph

Search for Another Location

Airport or City:

Trip Planner

Search our weather history database for the weather conditions in past years. The results will help you decide how hot, cold, wet, or windy it might be!

Date:

Astronomy

Jul. 12, 2013 Rise Set
Actual Time 6:44 AM CDT 8:39 PM CDT
Civil Twilight 6:17 AM CDT 9:06 PM CDT
Nautical Twilight 5:44 AM CDT 9:39 PM CDT
Astronomical Twilight 5:09 AM CDT 10:13 PM CDT
Moon 10:40 AM CDT (7/12) 11:15 PM CDT (7/12)
Length of Visible Light 14h 49m
Length of Day
13h 55m
Waxing Crescent, 17% of the Moon is Illuminated
Jul 12
Waxing Crescent
Jul 15
First Quarter
Jul 22
Full
Jul 29
Last Quarter
Aug 6
New

Hourly Weather History & Observations

Time (CDT) Temp. Heat Index Dew Point Humidity Pressure Visibility Wind Dir Wind Speed Gust Speed Precip Events Conditions
12:15 AM 80.2 °F 82.0 °F 64.6 °F 59% 29.99 in 10.0 mi SSE 9.2 mph - N/A   Clear
12:35 AM 79.7 °F - 64.8 °F 60% 29.99 in 10.0 mi SSE 8.1 mph - N/A   Clear
12:55 AM 79.0 °F - 65.3 °F 63% 30.00 in 10.0 mi SSE 10.4 mph - N/A   Clear
1:15 AM 79.0 °F - 65.5 °F 63% 30.00 in 10.0 mi SSE 6.9 mph - N/A   Clear
1:35 AM 78.8 °F - 66.4 °F 66% 30.00 in 10.0 mi SSE 6.9 mph - N/A   Clear
1:55 AM 77.0 °F - 65.8 °F 68% 29.99 in 10.0 mi SSE 6.9 mph - N/A   Clear
2:15 AM 76.5 °F - 66.4 °F 71% 29.99 in 10.0 mi SSE 3.5 mph - N/A   Clear
2:35 AM 76.5 °F - 67.5 °F 74% 29.99 in 10.0 mi SE 3.5 mph - N/A   Clear
2:55 AM 76.5 °F - 67.6 °F 74% 29.99 in 10.0 mi Calm Calm - N/A   Clear
3:15 AM 76.5 °F - 68.5 °F 76% 29.99 in 10.0 mi Calm Calm - N/A   Clear
3:35 AM 73.9 °F - 67.1 °F 79% 29.98 in 10.0 mi SSE 4.6 mph - N/A   Clear
3:55 AM 73.9 °F - 67.5 °F 80% 29.99 in 10.0 mi SSE 3.5 mph - N/A   Clear
4:15 AM 73.9 °F - 68.2 °F 82% 29.99 in 10.0 mi South 5.8 mph - N/A   Clear
4:35 AM 72.7 °F - 67.8 °F 85% 29.99 in 10.0 mi SSE 5.8 mph - N/A   Clear
4:55 AM 73.4 °F - 68.4 °F 84% 29.99 in 10.0 mi Calm Calm - N/A   Clear
5:15 AM 72.7 °F - 67.8 °F 85% 29.99 in 10.0 mi Calm Calm - N/A   Clear
5:35 AM 72.0 °F - 67.3 °F 85% 29.99 in 10.0 mi Calm Calm - N/A   Clear
5:55 AM 71.6 °F - 67.1 °F 86% 29.99 in 10.0 mi ESE 3.5 mph - N/A   Clear
6:15 AM 71.6 °F - 67.3 °F 86% 29.99 in 10.0 mi Calm Calm - N/A   Clear
6:35 AM 71.6 °F - 67.6 °F 87% 29.99 in 10.0 mi Calm Calm - N/A   Clear
6:55 AM 71.6 °F - 68.0 °F 88% 30.00 in 10.0 mi Calm Calm - N/A   Clear
7:15 AM 71.6 °F - 68.2 °F 89% 30.00 in 10.0 mi Calm Calm - N/A   Clear
7:35 AM 71.6 °F - 68.0 °F 88% 30.01 in 10.0 mi Calm Calm - N/A   Clear
7:55 AM 71.8 °F - 68.4 °F 89% 30.01 in 10.0 mi Calm Calm - N/A   Scattered Clouds
8:15 AM 72.7 °F - 69.3 °F 89% 30.02 in 10.0 mi South 3.5 mph - N/A   Overcast
8:35 AM 73.8 °F - 70.3 °F 89% 30.02 in 10.0 mi Calm Calm - N/A   Overcast
8:55 AM 76.3 °F - 71.8 °F 86% 30.02 in 10.0 mi South 4.6 mph - N/A   Overcast
9:15 AM 76.5 °F - 70.9 °F 83% 30.02 in 10.0 mi South 4.6 mph - N/A   Scattered Clouds
9:35 AM 76.8 °F - 70.5 °F 81% 30.02 in 10.0 mi South 3.5 mph - N/A   Clear
9:55 AM 79.0 °F - 71.6 °F 78% 30.03 in 10.0 mi SE 4.6 mph - N/A   Scattered Clouds
10:15 AM 79.0 °F - 69.6 °F 73% 30.02 in 10.0 mi SE 5.8 mph - N/A   Scattered Clouds
10:35 AM 81.3 °F 85.0 °F 70.2 °F 69% 30.02 in 10.0 mi SSE 4.6 mph - N/A   Scattered Clouds
10:55 AM 82.8 °F 85.5 °F 67.8 °F 60% 30.02 in 10.0 mi South 4.6 mph - N/A   Clear
11:15 AM 84.6 °F 87.1 °F 66.7 °F 55% 30.02 in 10.0 mi ESE 3.5 mph - N/A   Clear
11:35 AM 86.0 °F 88.2 °F 66.2 °F 51% 30.02 in 10.0 mi SSW 4.6 mph - N/A   Clear
11:55 AM 86.5 °F 88.7 °F 65.7 °F 50% 30.02 in 10.0 mi SE 4.6 mph - N/A   Clear
12:15 PM 88.3 °F 89.2 °F 63.0 °F 43% 30.02 in 10.0 mi ESE 4.6 mph - N/A   Clear
12:35 PM 90.0 °F 90.6 °F 62.4 °F 40% 30.02 in 10.0 mi East 5.8 mph - N/A   Clear
12:55 PM 90.3 °F 91.5 °F 63.7 °F 41% 30.01 in 10.0 mi SSE 3.5 mph - N/A   Clear
1:15 PM 91.6 °F 92.0 °F 61.7 °F 37% 30.01 in 10.0 mi SE 4.6 mph - N/A   Clear
1:35 PM 91.6 °F 91.6 °F 61.2 °F 36% 30.00 in 10.0 mi Calm Calm - N/A   Clear
1:55 PM 91.6 °F 91.0 °F 59.2 °F 34% 30.00 in 10.0 mi Calm Calm - N/A   Clear
2:15 PM 94.1 °F - 51.6 °F 24% 29.99 in 10.0 mi East 5.8 mph - N/A   Clear
2:35 PM 96.8 °F - 49.5 °F 20% 29.98 in 10.0 mi East 8.1 mph - N/A   Clear
2:55 PM 96.8 °F - 52.0 °F 22% 29.98 in 10.0 mi SSE 5.8 mph - N/A   Clear
3:15 PM 96.8 °F 94.4 °F 53.2 °F 23% 29.97 in 10.0 mi SE 4.6 mph - N/A   Clear
3:35 PM 96.8 °F - 52.3 °F 22% 29.97 in 10.0 mi NE 4.6 mph - N/A   Clear
3:55 PM 96.8 °F 94.4 °F 53.6 °F 23% 29.96 in 10.0 mi SE 11.5 mph 17.3 mph N/A   Scattered Clouds
4:15 PM 96.8 °F - 52.5 °F 22% 29.96 in 10.0 mi ESE 8.1 mph - N/A   Clear
4:35 PM 96.8 °F 94.4 °F 53.4 °F 23% 29.96 in 10.0 mi ESE 10.4 mph - N/A   Clear
4:55 PM 96.8 °F 94.7 °F 54.0 °F 24% 29.96 in 10.0 mi SE 8.1 mph 17.3 mph N/A   Clear
5:15 PM 96.8 °F 94.7 °F 54.0 °F 24% 29.95 in 10.0 mi ESE 10.4 mph - N/A   Clear
5:35 PM 96.8 °F 94.4 °F 53.8 °F 23% 29.95 in 10.0 mi SE 3.5 mph - N/A   Clear
5:55 PM 96.8 °F 94.4 °F 53.6 °F 23% 29.95 in 10.0 mi SE 12.7 mph - N/A   Clear
6:15 PM 95.5 °F 93.1 °F 53.1 °F 24% 29.95 in 10.0 mi SE 11.5 mph - N/A   Clear
6:35 PM 94.1 °F - 52.2 °F 24% 29.95 in 10.0 mi ESE 9.2 mph - N/A   Clear
6:55 PM 94.1 °F 91.6 °F 53.4 °F 25% 29.94 in 10.0 mi SE 11.5 mph - N/A   Clear
7:15 PM 92.7 °F 90.4 °F 53.8 °F 27% 29.95 in 10.0 mi SE 8.1 mph - N/A   Clear
7:35 PM 91.6 °F 89.6 °F 55.0 °F 29% 29.95 in 10.0 mi SE 11.5 mph - N/A   Clear
7:55 PM 91.6 °F 89.8 °F 56.3 °F 30% 29.95 in 10.0 mi SE 9.2 mph - N/A   Clear
8:15 PM 91.6 °F 90.4 °F 57.6 °F 32% 29.95 in 10.0 mi SSE 6.9 mph - N/A   Clear
8:35 PM 89.1 °F 87.7 °F 57.0 °F 34% 29.95 in 10.0 mi SSE 4.6 mph - N/A   Clear
8:55 PM 86.5 °F 85.3 °F 56.8 °F 36% 29.95 in 10.0 mi South 3.5 mph - N/A   Clear
9:15 PM 85.8 °F 84.7 °F 57.0 °F 37% 29.95 in 10.0 mi Calm Calm - N/A   Clear
9:35 PM 84.9 °F 84.1 °F 57.2 °F 39% 29.95 in 10.0 mi Calm Calm - N/A   Clear
9:55 PM 83.8 °F 83.3 °F 58.1 °F 41% 29.95 in 10.0 mi Calm Calm - N/A   Clear
10:15 PM 81.5 °F 81.6 °F 58.3 °F 45% 29.95 in 10.0 mi Calm Calm - N/A   Clear
10:35 PM 81.9 °F 81.8 °F 58.1 °F 44% 29.95 in 10.0 mi Calm Calm - N/A   Clear
10:55 PM 81.5 °F 81.6 °F 58.5 °F 45% 29.96 in 10.0 mi Calm Calm - N/A   Clear
11:15 PM 79.7 °F - 58.6 °F 48% 29.97 in 10.0 mi ESE 3.5 mph - N/A   Clear
11:35 PM 81.5 °F 82.1 °F 60.4 °F 49% 29.98 in 10.0 mi SE 3.5 mph - N/A   Clear
11:55 PM 79.9 °F - 60.8 °F 52% 29.98 in 10.0 mi SE 3.5 mph - N/A   Clear